Flag for United Kingdom Weather past 2 weeks in Chesterfield, England, United Kingdom

Now
54 °F

Fog.


Feels Like: 53 °F
Forecast: 47 / 61 °F
Wind: 5 mph from Northwest

Location: Nottingham Weather Centre

Current Time: Sep 1, 2015 at 3:42:27 AM

Latest Report: Sep 1, 2015 at 3:00 AM


Visibility: 6 mi

Pressure: 30.04 "Hg

Humidity: 97%

Dew point: 53 °F

Location of ChesterfieldLocation

Historic Weather in Chesterfield — Graph

°F

Chesterfield temperature yesterday

Maximum temperature yesterday: 57 °F (at 7:00 PM)
Minimum temperature yesterday: 55 °F (at 11:00 AM)
Average temperature yesterday: 56 °F

Past Weeks' High & Low Weather Summary

 TemperatureHumidityPressure
High82 °F (Aug 22, 5:00 PM)100% (Aug 20, 4:00 AM)30.11 "Hg (Aug 20, 4:00 AM)
Low49 °F (Aug 25, 6:00 AM)41% (Aug 23, 1:00 PM)29.47 "Hg (Aug 23, 1:00 PM)
Average61 °F79%29.87 "Hg
* Reported Aug 17 1:00 AM — Sep 1 1:00 AM, Chesterfield, Weather by CustomWeather, © 2015

Note: Actual official high and low records may vary slightly from our data, if they occured in-between our weather recording intervals... More about our weather records

Advertising

Chesterfield weather history for previous 24 hours

 ConditionsComfort  
Time TempWeatherWind HumidityBarometerVisibility
1:00 AM
Tue, Sep 1
54 °FFog.3 mph96%30.03 "Hg4 mi
12:00 AM54 °FFog.6 mph95%30.02 "Hg6 mi
11:00 PM
Mon, Aug 31
55 °FFog.3 mph94%30.02 "Hg5 mi
9:00 PM56 °FCool.6 mph94%30.01 "Hg12 mi
8:00 PM56 °FCool.3 mph93%30.00 "Hg7 mi
7:00 PM57 °FCool.3 mph93%30.00 "Hg17 mi
6:00 PM57 °FRain showers. Cloudy.5 mph93%30.00 "Hg12 mi
5:00 PM57 °FLots of rain. Cloudy.8 mph92%29.99 "Hg6 mi
3:00 PM57 °FSmoke.8 mph94%30.00 "Hg4 mi
2:00 PM56 °FCool.8 mph95%29.99 "Hg7 mi
1:00 PM56 °FCool.8 mph95%29.99 "Hg12 mi
12:00 PM55 °FLight rain. Cloudy.9 mph98%29.97 "Hg9 mi
11:00 AM55 °FRain. Cloudy.7 mph99%29.98 "Hg3 mi
10:00 AM55 °FRain. Cloudy.8 mph98%29.98 "Hg4 mi
9:00 AM55 °FLight rain. Cloudy.7 mph99%29.98 "Hg2 mi
8:00 AM55 °FLight rain. Cloudy.6 mph98%29.99 "Hg3 mi
7:00 AM55 °FLight rain. Cloudy.7 mph99%30.00 "Hg2 mi
6:00 AM56 °FRain showers. Overcast.7 mph98%29.99 "Hg2 mi
5:00 AM56 °FLots of rain. Overcast.6 mph96%30.01 "Hg2 mi
4:00 AM57 °FFog.6 mph99%30.02 "Hg2 mi
3:00 AM57 °FFog.3 mph100%30.03 "Hg3 mi
Weather by CustomWeather, © 2015

See weather overviewHow to use our weather pages